THOR ABLESTAR DEB, 21986

Orbit data source: Space-Track

THOR ABLESTAR DEB, 21986 is space debris in LEO originally from a launch on Thu, 29 Jun 1961 UTC launched from the Air Force Eastern Test Range (AFETR). Debris objects in space refer to the collection of defunct objects orbiting the Earth. Examples of debris include non-operational satellites, rocket bodies, and fragments generated from explosions, collisions, or faulty payload assembly.

Loading next visibility...
Identifier
21986, 1961-015MM
Orbit
LEO
Country
Flag of USUS
Related business
Manufacturer
Unknown
Mission
Spacecraft
Bus & Motor
Unknown
Mass
Unknown
Launch date (UTC)
1961-06-29 (64 years ago)
Launch vehicle
Unknown
Launch site
Air Force Eastern Test Range (AFETR)
Object type
Payload
Rocket body
Debris
Shape & HBR
Unknown shape, 0.1 m
Radar Cross Section
Small (<0.1 m²)

Expand to show TLE details & history
Last TLE update: 20 hours ago

TLE from 20 hours ago
0 THOR ABLESTAR DEB
1 21986U 61015MM  25297.69824016  .00000545  00000-0  36261-3 0  9995
2 21986  66.8782  34.3014 0099186 208.1683 301.8509 14.06222228719788
Epoch: 2025-10-24T16:45Z
TLE epoch observation values (Epoch: 2025-10-24T16:45:27.949Z)
Latitude
28.2892°
Longitude
-83.61843°
Altitude
837.562 km
Speed
7.456 km/s
True Right ascension
13h 24m 20s
True Declination
28° 08' 51"
Sunlit
Object was in daylight at epoch
Visualization orbit readout
Latitude
Unknown
Longitude
Unknown
Altitude
Unknown
Speed
Unknown
Apparent Right ascension
Unknown
Apparent Declination
Unknown
Sunlit
N/A
Visualization observer readout
Local Sidereal Time
08:30:45
Azimuth
Unknown
Elevation
Unknown
Doppler factor
Unknown
Orbital elements
Apogee altitude
942.599 km
Perigee altitude
798.802 km
Semi-major axis
7,248.837 km
Eccentricity
0.00992
Inclination
66.8782°
RAAN
34.3014°
Arg. of periapsis
208.1683°
True anomaly
300.87914°
Mean anomaly
301.8509°
Eccentric anomaly
301.36565°
Mean motion
3.51674 °/min
Orbital period
102.37 mins
BSTAR
0.00036261
Loading maneuver chart data...
Computing Atmospheric mass density...

Documentation

Showing up to 5 results
|